シュスター彗星

106P/Schuster (2007)

English version
Home page
Updated on April 20, 2007

---------------------------------------------------------------------

・ プロフィール

・ 軌道要素

The following orbital elements are taken from MPC 51822:

Epoch 2007 Apr. 10.0 TT = JDT 2454200.5
T 2007 Apr. 2.2218 TT                                   MPC
q   1.556134             (2000.0)            P               Q
n   0.1348563      Peri.  355.8289      +0.6856713      -0.6776674
a   3.766071       Node    50.6122      +0.6773994      +0.4604193
e   0.586802       Incl.   20.1113      +0.2664299      +0.5733942
P   7.31
From 194 observations 1977-2000, mean residual 0".7.  Nongravitational
     parameters A1 = +0.12, A2 = +0.0070.

・ 星図

・ 光度変化

        m1 = 9 + 5 logΔ + 25 log r(t + 15)

---------------------------------------------------------------------

軌道要素はMPCのEphemerides and Orbital Elementsに掲載されたものです。
星図は StellaNavigator Ver.2.0 for Windows (アストロアーツ 編著 / アスキー出版局刊) で作成したものです。
光度グラフはComet for Windowsで作成したものです。

---------------------------------------------------------------------

Copyright(C) Seiichi Yoshida (comet@aerith.net). All rights reserved.